星链-32274 (STARLINK-32274)

导读 | 星芒AI

STARLINK-32274 是 SpaceX Starlink 卫星互联网项目中的一颗低轨卫星,属于第二代 Starlink 卫星星座的一部分。该卫星于2023年发射,旨在为全球用户提供高速、低延迟的宽带互联网服务。它运行在约550公里高的近地轨道,配备先进通信设备和激光链路,支持卫星间高速数据传输。作为 Starlink 计划的重要组成部分,该卫星有助于扩大覆盖范围,提升网络性能,特别是在偏远和网络基础设施薄弱的地区。

基本信息
目录编号:
60922
目录名称:
STARLINK-32274
国际标识:
2024-154V
轨道中心:
EARTH
卫星名称:
星链-32274
卫星全名:
星链-32274 (STARLINK-32274)
卫星状态:
在轨 (已飞行429 天)
发射日期:
2024-08-31 UTC
国别 :
美国 (US)
星等 :
--
轨道信息
数据来源 国际轨道数据 AOE轨道数据
星历时间 2025-11-02T04:49:33+0800
1天前
查看轨道信息
2025-10-31T20:00:00+0800
3天前
查看轨道信息
半长轴 6853.39km 6853.356km
偏心率 0.0001421 0.0000947
轨道倾角 53.160° 53.157°
近地点辐角 75.713° 89.805°
升交点赤经 157.649° 164.000°
平近点角 284.403° 291.660°
近地点 474.281km 474.571km
远地点 476.229km 475.871km
周期 94.106分钟 94.105分钟
每日圈数 15.301875 15.301988
详细信息
固有亮度:
5
最大亮度:
2.5
卫星平台:
Starlink V1.0
覆盖范围:
全球
运营商:
太空探索技术公司
运营商所在国:
美国
制造商(研发单位):
太空探索技术公司
制造商所在国:
美国
使用方式:
暂无
卫星简介
Starlink 计划是 SpaceX 推出的全球卫星互联网项目,通过发射低轨道卫星,为全球尤其是偏远地区提供高速、低延迟的互联网服务。自 2019 年起,Starlink 已部署数千颗卫星,旨在缩小全球数字鸿沟,推动互联网普及。该项目还为军事、航空等行业提供通信支持,带来广泛经济效益。
2D轨道图
3D轨道图
轨道高度分析图
轨道倾角分析图
轨道综合分析图
查看轨道综合分析图